EHI
0 0 0 0 0 0 0 0 0 0 0 0 0 0 0 0 0 0 0 0 0 0 0 0 0 0 0 0 0 0 0 0 0 0 0 0 0 0 0 0 0 0 0
0 0 0 0 0 0 0 0 0 0 0 0 0 0 0 0 0 0 0 0 0 0 0 0 0 0 0 0 0 0 0 0 0 0 0 0 0 0 0 0 0 0 0
0 0 0 0 0 0 0 0 0 0 0 0 0 0 0 0 0 0 0 0 0 0 0 0 0 0 0 0 0 0 0 0 0 0 0 0 0 0 0 0 0 0 0
0 0 0 0 0 0 0 0 0 0 0 0 0 0 0 0 0 0 0 0 0 0 0 0 0 0 0 0 0 0 0 0 0 0 0 0 0 0 0 0 0 0 0
0 0 0 0 0 0 0 0 0 0 0 0 0 0 0 0 0 0 0 0 0 0 0 0 0 0 0 0 0 0 0 0 0 0 0 0 0 0 0 0 0 0 0
0 0 0 0 0 0 0 0 0 0 0 0 0 0 0 0 0 0 0 0 0 0 0 0 0 0 0 0 0 0 0 0 0 0 0 0 0 0 0 0 0 0 0
0 0 0 0 0 0 0 0 0 0 0 0 0 0 0 0 0 0 0 0 0 0 0 0 0 0 0 0 0 0 0 0 0 0 0 0 0 0 0 0 0 0 0
0 0 0 0 0 0 0 0 0 0 0 0 0 0 0 0 0 0 0 0 0 0 0 0 0 0 0 0 0 0 0 0 0 0 0 0 0 0 0 0 0 0 0
0 0 0 0 0 0 0 0 0 0 0 0 0 0 0 0 0 0 0 0 0 0 0 0 0 0 0 0 0 0 0 0 0 0 0 0 0 0 0 0 0 0 0
0 0 0 0 0 0 0 0 0 0 0 0 0 0 0 0 0 0 0 0 0 0 0 0 0 0 0 0 0 0 0 0 0 0 0 0 0 0 0 0 0 0 0
0 0 0 0 0 0 0 0 0 0 0 0 0 0 0 0 0 0 0 0 0 0 0 0 0 0 0 0 0 0 0 0 0 0 0 0 0 0 0 0 0 0 0
0 0 0 0 0 0 0 0 0 0 0 0 0 0 0 0 0 0 0 0 0 0 0 0 0 0 0 0 0 0 0 0 0 0 0 0 0 0 0 0 0 0 0
0 1 1 0 0 0 0 0 0 0 0 0 0 0 0 0 0 0 0 0 0 0 0 0 0 0 0 0 0 0 0 0 0 0 0 0 0 0 0 0 0 0 0
1 1 2 1 0 0 0 0 0 0 0 0 0 0 0 0 0 0 0 0 0 0 0 0 0 0 0 0 0 0 0 0 0 0 0 0 0 0 0 0 0 0 0
0 1 1 1 0 0 0 0 0 0 0 0 0 0 0 0 0 0 0 0 0 0 0 0 0 0 0 0 0 0 0 0 0 0 0 0 0 0 0 0 0 0 0
0 0 0 0 0 0 0 1 1 2 1 0 0 0 0 0 0 0 0 0 0 0 0 0 0 0 0 0 0 0 0 0 0 0 0 0 0 0 0 0 0 0 0
0 0 0 0 0 0 2 5 9 11 8 3 0 0 0 0 0 0 0 0 0 0 0 0 0 0 0 0 0 0 0 0 0 0 0 0 0 0 0 0 0 0 0
0 0 0 0 0 1 4 12 23 27 22 10 2 0 0 0 0 0 0 0 0 0 0 0 0 0 0 0 0 0 0 0 0 0 0 0 0 0 0 0 0 0 0
0 0 0 0 1 2 7 19 31 38 33 18 5 0 0 0 0 0 0 0 0 0 0 0 0 0 0 0 0 0 0 0 0 0 0 0 0 0 0 0 0 0 0
0 0 0 0 1 4 9 18 26 30 27 16 5 0 0 0 0 0 0 0 0 0 0 0 0 0 0 0 0 0 0 0 0 0 0 0 0 0 0 0 0 0 0
0 0 0 0 1 3 6 10 12 11 10 6 2 0 0 0 0 0 0 0 0 0 0 0 0 0 0 0 0 0 0 0 0 0 0 0 0 0 0 0 0 0 0
0 0 0 0 1 1 2 2 2 1 1 0 0 0 0 0 0 0 0 0 0 0 0 0 0 0 0 0 0 0 0 0 0 0 0 0 0 0 0 0 0 0 0
0 0 0 0 0 0 0 0 0 0 0 0 0 0 0 0 0 0 0 0 0 0 0 0 0 0 0 0 0 0 0 0 0 0 0 0 0 0 0 0 0 0 0
0 0 0 0 0 0 0 0 0 0 0 0 0 0 0 0 0 0 0 0 0 0 0 0 0 0 0 0 0 0 0 0 0 0 0 0 0 0 0 0 0 0 0
0 0 0 0 0 0 0 0 0 0 0 0 0 0 0 0 0 0 0 0 0 0 0 0 0 0 0 0 0 0 0 0 0 0 0 0 0 0 0 0 0 0 0
0 0 0 0 0 0 0 0 0 0 0 0 0 0 0 0 0 0 0 0 0 0 0 0 0 0 0 0 0 0 0 0 0 0 0 0 0 0 0 0 0 0 0
Wind_Speed
9 14 15 16 15 15 14 12 11 10 9 10 11 12 12 11 9 8 7 6 6 5 5 6 5 5 8 9 10 9 8 7 7 7 6 5 5 4 3 1 2 3 2
13 15 16 16 16 15 14 12 11 9 8 9 11 12 11 10 9 8 7 6 6 7 8 9 9 9 9 9 9 8 6 5 5 6 3 1 1 4 4 2 4 3 2
14 15 17 15 16 15 14 12 11 9 8 9 10 11 11 10 9 8 7 7 6 7 8 9 10 10 10 9 7 6 5 5 5 4 3 3 2 3 5 4 4 5 5
14 14 15 16 16 15 14 12 11 9 9 9 11 11 10 9 9 8 7 7 7 7 8 8 8 8 8 7 6 5 5 5 4 3 3 4 3 4 7 7 6 6 7
14 13 15 16 16 15 13 12 10 9 9 10 11 11 10 9 8 7 7 7 7 7 7 7 7 6 6 5 4 4 3 3 1 5 4 4 4 5 8 8 8 8 8
14 14 15 15 16 15 13 12 11 10 9 10 10 10 8 7 6 6 6 7 7 6 6 5 5 4 3 3 3 3 4 3 6 4 4 4 4 5 8 8 9 9 10
13 13 16 15 15 15 14 12 11 10 9 9 9 8 7 4 3 4 6 7 6 5 4 4 4 3 3 2 3 4 4 4 6 4 4 4 4 6 8 8 9 10 11
12 12 14 16 14 15 14 13 12 11 10 9 9 7 5 3 1 1 6 7 6 4 2 3 4 4 3 3 4 4 5 6 5 4 4 4 5 7 8 9 9 11 12
12 12 12 14 14 14 13 12 12 11 9 9 8 6 4 4 4 2 7 7 5 2 1 2 3 3 4 4 4 4 4 3 6 3 4 4 6 8 8 9 9 10 10
10 11 12 12 12 12 12 12 11 10 9 8 7 5 5 5 4 5 6 5 3 1 2 3 4 5 5 5 5 4 2 4 3 3 3 4 6 7 8 8 9 9 9
9 11 11 12 11 11 11 11 11 10 9 8 8 7 6 5 4 5 6 5 3 3 4 4 5 5 3 6 6 3 2 3 3 3 3 6 7 7 7 7 8 8 9
12 12 11 12 12 11 9 9 8 8 9 8 7 8 6 4 3 3 7 4 4 4 4 5 4 2 1 2 3 1 2 3 3 3 4 6 5 5 6 8 9 10 11
11 12 12 12 12 11 9 8 6 6 6 7 7 7 5 5 4 4 4 5 4 4 3 4 2 2 3 3 3 3 4 3 3 2 5 7 6 7 9 10 11 11 11
9 11 12 13 12 12 10 8 8 7 6 6 7 8 6 4 4 4 3 3 2 2 2 2 2 4 3 4 4 4 3 3 2 2 6 10 9 10 10 11 11 12 12
10 11 13 13 14 12 11 9 9 8 8 8 7 8 8 5 5 4 3 2 2 3 3 2 2 4 3 4 3 3 3 3 1 1 5 11 12 12 12 12 13 13 13
12 11 11 14 14 14 12 11 10 9 9 8 8 9 9 6 5 5 4 4 4 3 3 3 4 3 3 2 3 3 3 2 0 2 4 7 12 12 13 13 13 13 13
12 10 11 12 14 15 14 13 10 9 10 9 9 10 10 7 7 6 5 5 4 4 4 3 4 3 3 2 2 3 2 2 1 3 4 3 6 10 12 13 13 13 13
12 11 10 9 13 15 14 13 10 10 11 9 9 9 10 9 9 7 6 5 5 4 4 3 2 2 3 3 3 3 2 1 3 3 4 3 3 3 6 10 12 13 13
14 12 10 11 13 14 14 11 10 10 10 8 8 8 9 10 9 8 6 6 6 5 4 4 3 3 4 4 4 3 2 1 3 4 4 3 3 3 3 5 8 10 12
13 11 11 11 12 12 11 9 7 8 7 6 7 8 10 9 10 9 7 8 7 5 4 4 5 4 4 4 4 3 1 0 3 3 2 2 1 2 4 6 7 8 11
12 12 11 11 12 11 10 10 8 8 7 6 6 9 10 11 10 9 8 8 6 5 5 5 4 5 5 5 4 2 1 2 3 3 2 3 2 3 5 7 8 8 7
14 13 12 12 13 14 11 10 6 7 6 6 7 8 10 10 10 8 9 8 7 6 7 6 4 3 3 4 4 4 3 2 3 3 3 3 4 4 6 9 10 10 9
16 14 11 13 13 14 14 10 10 8 6 6 7 7 8 9 9 9 9 8 8 6 6 6 5 3 3 3 4 4 3 3 5 4 4 4 5 6 8 9 10 11 10
17 13 13 14 14 15 15 14 16 11 9 8 8 8 10 9 9 9 9 9 8 7 7 6 5 3 2 2 1 2 3 4 5 5 4 5 6 8 9 8 10 11 10
16 14 13 14 15 16 16 16 16 12 10 10 10 12 11 9 9 9 9 9 8 7 7 6 5 3 2 1 1 2 2 3 5 5 8 7 7 7 7 9 10 9 9
13 13 13 15 16 16 16 16 16 17 17 17 15 13 10 8 8 9 9 8 8 7 6 5 4 3 1 0 1 2 3 4 4 5 8 10 10 9 10 9 8 8 8
Wind_Direction
159 158 155 153 148 143 138 133 129 128 130 134 136 131 125 118 110 101 89 77 60 52 52 56 79 107 115 107 101 94 82 70 64 65 57 38 11 350 353 22 274 229 45
153 157 152 153 149 146 141 135 132 132 135 140 141 134 128 121 112 101 90 79 65 56 56 59 64 77 86 87 86 83 73 60 61 73 62 110 39 343 333 304 283 332 326
153 156 155 154 151 148 143 137 134 136 140 142 142 136 127 120 112 102 90 77 69 61 58 59 58 61 63 65 66 60 46 38 53 57 270 305 40 356 323 304 264 262 261
156 158 158 152 153 150 146 141 138 138 140 141 139 135 129 124 117 109 92 76 72 68 64 62 60 58 55 52 47 39 28 30 44 317 307 358 336 6 320 310 284 263 256
159 160 148 153 154 152 150 146 144 142 141 141 139 136 133 132 130 121 102 88 82 79 74 69 63 58 51 45 38 30 22 18 340 277 355 352 332 359 319 309 301 291 281
161 161 149 156 157 156 155 153 150 147 145 143 144 142 142 142 143 134 120 109 100 91 81 75 68 59 47 30 12 2 8 13 281 331 346 340 338 354 313 303 296 292 288
163 162 156 160 161 161 162 160 157 155 152 150 151 150 152 147 149 155 145 131 122 107 86 64 48 37 28 9 352 354 4 347 306 331 333 335 354 333 307 299 291 285 282
164 165 161 163 164 166 168 167 165 163 161 160 162 164 168 159 107 181 162 147 140 133 99 39 26 20 11 1 356 357 356 326 300 323 334 333 9 318 307 304 297 289 283
165 171 170 171 172 171 172 172 172 170 169 169 171 171 149 93 56 56 144 148 153 158 87 24 17 14 19 18 14 11 8 331 296 340 333 342 354 317 314 319 322 319 313
172 179 180 179 181 180 179 176 175 173 171 171 168 150 122 110 96 94 139 129 137 88 33 34 34 42 50 48 43 41 8 269 323 336 330 12 343 328 332 341 345 348 353
182 189 188 187 187 187 185 175 178 176 173 174 170 149 169 194 171 147 92 81 75 60 52 50 55 62 85 91 68 48 276 340 359 349 1 7 338 341 351 1 8 11 17
188 193 195 195 191 190 186 182 189 185 179 193 181 174 189 181 160 139 114 102 103 101 100 77 83 113 277 76 94 254 360 358 348 1 24 357 347 4 28 39 40 39 40
197 191 197 198 196 195 191 191 189 188 185 190 186 178 176 172 167 179 168 158 159 167 148 123 147 63 44 38 13 20 12 350 350 3 36 22 38 54 56 50 43 38 33
209 202 199 197 197 199 198 195 195 191 188 187 184 182 178 173 177 170 178 155 161 137 101 90 65 73 58 43 25 15 12 350 355 27 53 45 55 59 55 48 39 30 22
222 212 205 200 198 197 199 199 199 197 192 188 183 185 184 179 174 161 155 133 107 100 108 91 79 67 51 39 30 8 360 354 8 82 87 60 59 60 55 45 35 25 14
232 222 209 204 201 197 197 198 198 196 192 190 184 188 187 181 167 155 141 124 111 100 90 91 78 67 50 30 20 8 352 344 64 134 112 88 66 60 55 43 31 19 7
241 231 217 211 205 201 201 200 197 193 189 188 186 187 184 175 159 144 132 124 115 112 110 97 82 58 42 16 359 355 341 321 202 147 127 106 91 69 55 40 26 13 1
247 235 225 210 209 204 202 200 196 192 188 185 181 178 174 161 149 138 130 122 122 116 108 94 77 59 32 357 341 344 319 270 202 152 138 115 83 67 61 36 16 5 354
247 239 228 214 211 204 199 198 196 190 185 178 170 163 156 148 142 133 125 124 125 116 107 96 68 36 21 359 338 335 331 253 173 170 149 120 87 40 9 14 354 349 344
245 240 229 213 208 196 188 187 182 178 169 160 155 149 143 136 133 125 120 125 125 121 115 107 89 58 25 349 327 333 3 85 187 175 176 175 164 335 337 343 336 336 332
235 228 221 208 195 181 176 174 172 167 149 134 131 134 133 131 129 124 124 126 125 117 114 106 92 64 34 355 328 322 191 184 207 193 241 264 258 288 308 333 335 331 322
229 220 211 201 187 180 176 170 162 136 119 110 111 116 123 127 126 125 129 127 123 117 107 93 81 74 51 16 349 325 312 206 176 211 266 267 283 293 316 329 327 321 316
224 214 202 192 183 178 167 148 131 116 114 113 118 115 119 121 119 122 127 124 122 116 104 92 82 72 69 52 15 347 324 318 315 273 275 289 296 308 317 318 314 314 309
219 208 198 185 178 172 164 163 162 161 154 150 140 129 123 118 120 124 125 121 117 112 109 100 88 82 57 49 56 2 327 320 296 300 272 267 287 299 300 303 308 305 299
215 200 190 180 175 170 172 171 170 157 137 130 129 127 122 119 121 126 124 120 115 110 108 108 105 94 68 27 348 318 288 271 268 282 294 302 298 292 296 298 296 292 296
211 194 184 177 173 171 172 170 165 149 143 141 141 136 131 128 128 128 125 120 118 115 116 117 117 117 111 104 293 292 297 293 294 286 290 300 302 303 301 292 286 290 298